Location: ??? ???????
(33.4083°N, 35.6712°E)
Time: 16:35:46
(UTC+00:00)

Daily predictions for brighter satellites

Satellite Brightness Start Highest point End
(mag) Time Altitude Azimuth Time Altitude Azimuth Time Altitude Azimuth
Cosmos 372 Rocket 4.5 17:07:44 10° N 17:12:45 44° ENE 17:17:44 10° SE
CZ-2C R/B 4.4 17:09:34 10° NNE 17:14:00 37° E 17:18:23 10° SSE
Cosmos 1356 Rocket 4.0 17:12:13 10° N 17:16:12 39° ENE 17:20:06 10° SSE
EXPRESS MD2 4.1 17:18:53 10° WNW 17:21:49 44° SW 17:27:08 10° SSE
Cosmos 1626 2.9 17:22:01 10° SSW 17:25:38 56° W 17:29:16 10° N
Cosmos 1818 3.9 17:22:26 10° S 17:27:32 44° ESE 17:32:41 10° NE
CZ-2C R/B 4.1 17:22:03 10° S 17:27:40 54° W 17:33:07 10° NNW
SL-16 R/B 2.3 17:23:10 10° SSW 17:28:50 83° WNW 17:34:32 10° NNE
ARGOS 3.4 17:23:39 10° S 17:29:03 76° WSW 17:34:31 10° NNW
SL-08 RB Rocket 3.7 17:28:31 10° SSE 17:32:58 89° E 17:37:29 10° NNW
MetOp-A 4.3 17:28:48 10° SSE 17:34:01 58° ENE 17:39:16 10° N
Resurs 01 Rocket 2.9 17:30:34 10° SE 17:34:08 25° ENE 17:37:43 10° NNE
CZ-2C R/B 2.6 17:30:28 10° NNE 17:35:51 83° ESE 17:41:06 10° S
USA 215 3.7 17:33:05 10° ENE 17:39:04 38° SE 17:45:01 10° SSW
ATLAS 5 CENTAUR R/B 1.5 17:38:45 10° SSW 17:42:37 52° ESE 17:46:45 10° NE
MONITOR-E 3.6 17:40:28 10° S 17:42:56 79° W 17:45:24 10° NNW
Cosmos 2150 Rocket 4.1 17:38:42 10° N 17:43:52 62° ENE 17:48:46 12° SSE
GEOS 3 Rocket 3.9 17:42:02 10° NE 17:47:14 48° ESE 17:52:22 10° SSW
Cosmos 2058 Rocket 3.4 17:43:28 10° N 17:47:58 71° W 17:52:24 10° S
USA 186 3.7 17:47:28 10° SSW 17:50:28 30° W 17:53:27 10° NNW
Cosmos 1844 Rocket 4.4 17:48:05 10° NNE 17:51:40 17° ENE 17:54:56 11° E
Cosmos 1758 Rocket 4.5 17:53:39 16° SE 17:56:30 31° E 18:00:26 10° NNE
Ariane Rocket 4.1 17:52:23 10° S 17:57:12 43° W 18:02:02 10° NNW
Cosmos 1626 Rocket 3.7 17:53:39 10° S 17:58:05 80° W 18:02:33 10° N
Meteor 2-10 Rocket 4.2 17:53:22 10° N 17:58:06 36° ENE 18:01:20 19° SE
Cosmos 1745 Rocket 4.1 17:52:32 10° SSE 17:58:30 55° E 18:04:34 10° NNE
OAO 3 Rocket 3.4 17:59:11 10° W 18:04:05 74° N 18:08:25 13° E
Resurs 1-3 3.6 18:05:44 13° S 18:09:34 80° W 18:13:58 10° NNW
Meteor 1-21 Rocket 4.3 18:03:58 10° S 18:09:50 78° E 18:15:46 10° N
H-2A R/B 4.4 18:07:04 10° SW 18:11:12 22° W 18:15:22 10° NW
Cosmos 1125 Rocket 3.5 18:09:06 10° NNW 18:14:22 74° ENE 18:17:45 22° SSE
SL-08 ROCKET BODY 4.3 18:09:05 10° S 18:14:58 78° E 18:20:58 10° N
BREEZE M DEB (TANK) 3.7 18:12:59 19° S 18:15:03 33° ESE 18:22:54 10° ENE
Cosmos 2322 Rocket 3.7 18:11:06 10° SW 18:16:16 38° WNW 18:21:30 10° N
SPOT 3 Rocket 3.8 18:13:47 12° S 18:18:34 67° WSW 18:23:46 10° NNW
Cosmos 1953 Rocket 4.5 18:18:56 26° ESE 18:19:39 28° E 18:23:19 10° NNE
OAO 2 Rocket 3.4 18:20:34 10° W 18:25:53 84° N 18:30:36 13° ENE
Cosmos 1328 3.9 18:26:16 36° SSE 18:27:36 55° E 18:31:29 10° NNE
Cosmos 1825 Rocket 3.5 18:33:11 30° S 18:35:16 72° E 18:39:43 10° N
COSMOS 2428 3.0 18:33:39 30° SSE 18:35:50 43° ESE 18:41:10 10° NE
Geosat 4.3 18:34:36 25° S 18:37:29 61° WSW 18:42:27 10° NNW
SAR-Lupe-2 3.7 18:35:48 10° NNE 18:39:18 52° E 18:39:18 52° E
Cosmos 2322 3.6 18:34:04 10° SSW 18:39:46 85° ESE 18:45:31 10° NNE
Cosmos 1461 3.6 18:35:12 10° NW 18:39:51 57° WSW 18:41:51 31° S
Cosmos 1455 2.1 18:37:05 10° N 18:40:56 85° E 18:41:51 51° SSE
Cosmos 1703 3.2 18:40:05 33° SSW 18:41:43 79° W 18:45:36 10° N
NOSS 3-3 (A) 3.7 18:37:12 10° SSW 18:42:47 69° ESE 18:48:55 10° NE
NOSS 3-3 (C) 3.7 18:37:18 10° SSW 18:42:54 67° ESE 18:49:03 10° NE
Cosmos 1709 Rocket 3.9 18:39:37 24° S 18:43:32 71° E 18:49:50 10° N
Cosmos 1844 4.4 18:40:31 10° N 18:45:55 40° ENE 18:47:38 32° ESE
Cosmos 1812 Rocket 4.2 18:44:45 10° NNW 18:48:56 52° W 18:51:00 27° SSW
MetOp-B 4.1 18:46:28 32° S 18:49:01 82° WSW 18:54:23 10° NNW
Cosmos 2237 Rocket 3.9 18:51:25 17° E 18:51:25 17° E 18:53:48 10° NE
Delta 2 Rocket 3.2 18:47:39 10° WNW 18:50:59 57° N 18:51:17 54° NNE
Cosmos 2333 4.3 18:45:59 10° SSW 18:51:35 79° WNW 18:57:17 10° NNE
Cosmos 2219 Rocket 2.0 18:49:04 27° S 18:52:11 70° ESE 18:57:45 10° NNE
Nadezhda 1 Rocket 4.2 18:46:01 10° N 18:52:24 72° W 18:56:22 24° S
Atlas Centaur 2 2.4 18:46:54 10° W 18:52:47 69° S 18:56:13 32° ESE
Terra 3.2 18:52:47 24° ENE 18:53:07 24° ENE 18:56:53 10° NNE
Cosmos 2360 Rocket 3.7 18:49:06 10° SW 18:54:13 36° WNW 18:59:24 10° N
Cosmos 2263 Rocket 4.1 18:49:58 10° NW 18:54:13 23° W 18:58:27 10° SSW
CARTOSAT-1 4.2 18:55:50 39° ENE 18:55:56 39° ENE 18:59:57 10° N
Cosmos 1538 Rocket 4.0 18:54:45 42° SSE 18:56:24 64° ESE 19:01:42 10° NNE
IGS 5A 3.4 18:59:06 63° S 18:59:44 83° W 19:03:54 10° NNW
Cosmos 2333 Rocket 2.1 18:57:31 19° SSW 19:01:41 88° WNW 19:07:25 10° NNE
DELTA 2 R/B (1) 3.4 18:56:25 10° WSW 19:01:59 85° SSE 19:07:36 10° ENE
Resurs 01 Rocket 3.6 19:08:07 15° SW 19:10:30 23° W 19:14:02 10° NW
OAO 1 Rocket 4.5 19:05:47 10° W 19:11:07 77° N 19:12:44 45° E
ERS-1 Rocket 2.8 19:16:52 67° SE 19:17:23 75° ENE 19:22:25 10° N
Cosmos 1315 Rocket 4.0 19:15:36 10° N 19:18:31 34° NE 19:18:31 34° NE
Cosmos-2242 3.5 19:17:35 10° NNW 19:21:49 52° W 19:22:15 50° WSW
USA 215 4.0 19:15:48 10° NNE 19:22:05 51° NW 19:28:20 10° WSW
Cosmos 2221 4.1 19:23:00 10° NNE 19:25:38 25° NE 19:25:38 25° NE
Cosmos 2278 Rocket 3.7 19:26:18 10° N 19:30:47 23° ENE 19:31:19 23° ENE
SL-16 R/B 4.5 19:37:05 11° ENE 19:37:05 11° ENE 19:37:23 10° ENE
SPOT 5 2.8 19:34:42 82° SW 19:34:51 84° WSW 19:39:48 10° NNW
Cosmos 1844 Rocket 2.9 19:30:27 10° NNW 19:35:53 56° WSW 19:36:36 52° SW
Cosmos 2154 Rocket 4.5 19:38:18 42° E 19:38:18 42° E 19:43:45 10° NNE
H-2A ROCKET BODY 4.2 19:33:35 10° W 19:40:10 53° S 20:15:30 10° ESE
Cosmos 1400 Rocket 4.5 19:38:55 10° NW 19:42:04 27° W 19:42:04 27° W
Meteor 2-17 Rocket 4.4 19:43:25 65° E 19:43:28 65° E 19:49:27 10° NNE
Cosmos 2074 Rocket 3.8 19:44:35 72° S 19:45:18 85° E 19:51:32 10° N
In-Cosmos 22 Rocket 4.3 19:48:10 60° NE 19:48:10 60° NE 19:52:42 10° NNE
OAO 3 Rocket 4.0 19:42:46 10° W 19:46:11 43° W 19:46:11 43° W
Cosmos 2181 Rocket 4.1 19:42:04 10° NNW 19:48:19 68° W 19:49:24 57° SW
Cosmos 1680 Rocket 4.0 19:55:25 52° NE 19:55:25 52° NE 19:59:32 10° NNE
VEP-3 3.9 19:59:25 10° WSW 20:18:55 15° ESE 20:24:13 10° ESE
BREEZE-M R/B 3.9 19:58:14 10° NW 20:06:40 61° NNE 20:06:41 61° NE
Cosmos 2344 3.3 20:06:06 66° S 20:07:12 78° ESE 20:14:47 10° NNE
Cosmos 2327 Rocket 4.3 20:07:35 86° ENE 20:07:35 86° ENE 20:13:41 10° N
OAO 2 Rocket 4.1 20:05:34 10° W 20:09:33 50° WNW 20:09:33 50° WNW
Cosmos 923 Rocket 4.5 20:12:02 57° WNW 20:12:02 57° WNW 20:16:58 10° N
Cosmos 1980 3.9 20:15:08 63° WNW 20:15:08 63° WNW 20:20:44 10° NNE
ATLAS CENTAUR R/B 3.8 20:21:13 10° NNW 20:22:16 18° NNW 20:22:16 18° NNW
Terra 3.5 20:31:40 26° WNW 20:31:40 26° WNW 20:34:46 10° NW
Cosmos 2237 Rocket 2.9 20:33:12 46° WNW 20:33:28 46° WNW 20:38:57 10° N
Atlas Centaur 2 3.8 20:35:33 10° W 20:38:47 30° WSW 20:38:47 30° WSW
DELTA 2 R/B (1) 4.4 20:43:21 10° W 20:48:45 47° N 20:49:12 46° N
ATLAS 2AS CENTAUR R/B 3.0 20:51:40 10° NNW 20:58:56 59° NE 20:59:01 59° ENE
MOS 1-B Rocket 4.5 20:51:54 10° N 20:59:06 59° WNW 20:59:25 59° W
Cosmos 2218 Rocket 4.4 21:06:08 60° NNE 21:06:08 60° NNE 21:11:19 10° N
Cosmos 2366 rocket 4.3 21:11:55 62° NNE 21:11:55 62° NNE 21:17:08 10° N
Cosmos 2278 Rocket 3.5 21:09:41 10° NW 21:13:09 32° WNW 21:13:09 32° WNW
SL-16 R/B 3.0 21:18:56 47° NNW 21:18:56 47° NNW 21:23:18 10° NNE
Cosmos 1943 Rocket 3.8 21:18:44 10° N 21:23:11 26° ENE 21:23:11 26° ENE
USA 267 3.6 21:34:04 56° WNW 21:34:04 56° WNW 21:39:13 10° NW
COSMOS 2455 3.7 21:49:58 10° NNW 21:55:18 45° NE 21:55:18 45° NE
Cosmos 1727 Rocket 4.4 21:58:23 10° N 22:03:21 57° NNW 22:03:21 57° NNW
Cosmos 2369 Rocket 3.2 22:02:30 10° N 22:07:05 39° NE 22:07:05 39° NE
Resurs 1-4 Rocket 4.2 22:05:15 10° NE 22:07:40 17° ENE 22:07:40 17° ENE
SeaSat 1 4.2 22:09:12 10° NE 22:11:34 25° ENE 22:11:34 25° ENE
DELTA 2 R/B (1) 4.4 22:36:22 48° NNE 22:36:22 48° NNE 22:41:16 10° E
CZ-2D R/B 3.4 22:33:42 10° NNE 22:37:33 33° ENE 22:37:33 33° ENE
Lacrosse 5 3.6 22:48:42 26° ENE 22:48:42 26° ENE 22:51:16 10° NE
ATLAS 2AS CENTAUR R/B 4.5 22:44:00 10° WNW 22:46:25 17° WNW 22:46:25 17° WNW
Cosmos 1943 4.2 22:56:06 38° NW 22:56:06 38° NW 23:00:43 10° N
NPP 4.4 22:52:19 10° NNE 22:56:49 45° ENE 22:56:49 45° ENE
Cosmos 1943 Rocket 3.7 23:02:02 10° NW 23:04:40 25° WNW 23:04:40 25° WNW
Lacrosse 5 rocket 3.6 23:04:22 10° NNW 23:06:18 21° NNE 23:06:18 21° NNE
Cosmos 2123 Rocket 4.2 23:10:05 10° NNW 23:15:27 56° WNW 23:15:27 56° WNW
Cosmos 2251 Rocket 4.0 23:17:32 56° ENE 23:17:32 56° ENE 23:22:04 10° NNE
Iridium 4 Rocket 4.0 23:28:48 57° WNW 23:28:48 57° WNW 23:34:02 10° N
Cosmos 1153 Rocket 4.3 23:28:18 81° SW 23:28:36 84° W 23:34:51 10° N
Cosmos 1459 Rocket 4.3 23:30:42 48° SE 23:31:48 55° E 23:37:42 10° NNE
SL-16 R/B 2.4 23:31:34 73° S 23:32:14 88° WSW 23:38:30 10° NNW
Cosmos 1605 Rocket 4.5 23:34:31 46° W 23:34:31 46° W 23:40:34 10° N
CZ-4B R/B 3.5 23:32:23 10° NNE 23:37:13 79° NE 23:37:13 79° NE
Cosmos 292 Rocket 4.1 23:35:10 10° NNW 23:39:09 61° NNW 23:39:09 61° NNW
CZ-4C R/B 3.0 23:34:04 10° NW 23:41:47 75° WSW 23:45:19 39° SSE
Cosmos 1933 Rocket 4.2 23:43:16 49° NNW 23:43:16 49° NNW 23:46:31 10° N
BREEZE-M TANK 3.6 23:47:12 34° N 23:47:12 34° N 23:49:26 10° NE
Resurs 1-4 Rocket 2.7 23:43:52 10° N 23:48:44 43° WNW 23:48:44 43° WNW
SeaSat 1 4.1 23:47:19 10° N 23:51:04 22° NW 23:51:20 22° WNW
Cosmos 2369 Rocket 4.1 23:47:19 10° NW 23:48:49 16° WNW 23:48:49 16° WNW
IRS-P3 4.4 23:48:58 10° NNE 23:54:15 62° E 23:55:14 52° SSE
